Waarnemingen

Advertentie
Mijn weer
Troyes, Frankrijk (7168): temperatuur & dauwpunt: 11.07.2019 00:00:00 - 17.07.2019 00:00:00 (CEST)Troyes, Frankrijk (7168): temperatuur 5cm: 11.07.2019 00:00:00 - 17.07.2019 00:00:00 (CEST)Troyes, Frankrijk (7168): temperatuur -20cm & temperatuur -100cm: 11.07.2019 00:00:00 - 17.07.2019 00:00:00 (CEST)Troyes, Frankrijk (7168): windsnelheid & windstoten: 11.07.2019 00:00:00 - 17.07.2019 00:00:00 (CEST)Troyes, Frankrijk (7168): windrichting: 11.07.2019 00:00:00 - 17.07.2019 00:00:00 (CEST)Troyes, Frankrijk (7168): luchtdruk: 11.07.2019 00:00:00 - 17.07.2019 00:00:00 (CEST)Troyes, Frankrijk (7168): zicht: 11.07.2019 00:00:00 - 17.07.2019 00:00:00 (CEST)Troyes, Frankrijk (7168): Zonneschijnduur: 11.07.2019 00:00:00 - 17.07.2019 00:00:00 (CEST)Troyes, Frankrijk (7168): neerslag: 11.07.2019 00:00:00 - 17.07.2019 00:00:00 (CEST)
Datum & Tijd tt [°C] td [°C] tt 5cm [°C] tt -20cm [°C] tt -100cm [°C] ff [km/u] ff [kn] fx [km/u] fx [kn] dd ppp [hPa] vv [km] sd [min] rr [mm]
17.07.2019 00:00:00 13,6 8,0 9,6 21,7 17,4 9 5 10 5 NW 1017,2 20 0 0,0
16.07.2019 23:00:00 15,0 8,7 11,3 21,8 17,4 5 3 8 4 WNW 1016,9 8 0 0,0
16.07.2019 22:00:00 22,1 9,9 17,4 21,7 17,4 5 3 11 6 N 1016,5 20 12 0,0
16.07.2019 21:00:00 24,4 10,3 23,7 21,6 17,3 9 5 13 7 NNW 1016,3 20 60 0,0
16.07.2019 20:00:00 25,0 9,3 25,2 21,5 17,3 8 4 21 11 N 1016,2 20 45 0,0
16.07.2019 19:00:00 25,0 9,3 26,0 21,2 17,3 13 7 22 12 NNW 1016,3 20 22 0,0
16.07.2019 18:00:00 25,7 9,1 28,6 20,9 17,3 12 6 27 15 NW 1016,5 20 57 0,0
16.07.2019 17:00:00 26,4 10,1 30,1 20,5 17,3 14 8 29 16 NNW 1016,6 20 60 0,0
16.07.2019 16:00:00 25,1 9,8 30,9 20,2 17,3 11 6 26 14 NW 1017,0 20 60 0,0
16.07.2019 15:00:00 25,1 9,8 32,0 19,9 17,3 13 7 30 16 NNW 1017,3 19 60 0,0
16.07.2019 14:00:00 24,2 9,4 30,2 19,6 17,3 10 6 29 16 N 1017,6 19 60 0,0
16.07.2019 13:00:00 22,7 10,2 30,0 19,5 17,3 6 4 21 11 N 1018,0 14 60 0,0
16.07.2019 12:00:00 21,5 11,5 26,1 19,5 17,4 7 4 17 9 N 1018,6 19 60 0,0
16.07.2019 11:00:00 19,3 11,3 25,1 19,5 17,3 8 5 18 10 N 1018,9 19 60 0,0
16.07.2019 10:00:00 17,1 10,9 21,1 19,6 17,4 6 4 15 8 NNW 1019,3 19 60 0,0
16.07.2019 09:00:00 14,8 10,4 18,0 19,8 17,3 6 3 10 6 NNW 1019,4 19 60 0,0
16.07.2019 08:00:00 11,9 9,8 12,0 20,0 17,4 8 5 16 9 NW 1019,5 16 60 0,0
16.07.2019 07:00:00 10,0 8,8 7,8 20,2 17,4 13 7 16 9 WNW 1019,6 13 34 0,0
16.07.2019 06:00:00 8,9 7,3 7,7 20,4 17,4 11 6 14 8 WNW 1019,5 17 0 0,0
16.07.2019 05:00:00 9,8 8,6 7,6 20,6 17,4 13 7 15 8 WNW 1019,4 18 0 0,0
16.07.2019 04:00:00 10,0 8,4 8,3 20,8 17,4 13 7 16 9 WNW 1019,6 20 0 0,0
16.07.2019 03:00:00 10,5 8,6 9,2 21,0 17,4 15 8 18 10 WNW 1019,7 20 0 0,0
16.07.2019 02:00:00 11,6 9,3 10,2 21,2 17,4 15 8 17 9 WNW 1019,7 20 0 0,0
16.07.2019 01:00:00 12,3 9,5 10,9 21,3 17,4 15 8 17 9 WNW 1019,7 20 0 0,0
16.07.2019 00:00:00 13,7 9,5 12,3 21,4 17,4 15 8 22 12 WNW 1019,2 20 0 0,0
15.07.2019 23:00:00 14,9 8,8 12,9 21,4 17,4 8 4 17 9 NW 1018,8 19 0 0,0
15.07.2019 22:00:00 20,3 10,1 18,9 21,4 17,3 10 5 26 14 N 1018,1 20 13 0,0
15.07.2019 21:00:00 22,5 10,3 21,7 21,4 17,4 17 9 31 17 N 1017,7 20 60 0,0
15.07.2019 20:00:00 24,1 10,4 24,3 21,2 17,4 20 11 35 19 N 1017,3 20 60 0,0
15.07.2019 19:00:00 24,7 10,2 25,7 20,9 17,4 17 9 39 21 N 1017,0 20 60 0,0
15.07.2019 18:00:00 25,0 10,5 26,9 20,7 17,4 21 12 46 25 N 1017,2 20 60 0,0
15.07.2019 17:00:00 24,9 10,4 26,6 20,4 17,3 17 9 48 26 N 1017,4 20 52 0,0
15.07.2019 16:00:00 24,0 10,6 26,3 20,1 17,3 20 11 41 22 N 1017,8 18 51 0,0
15.07.2019 15:00:00 23,1 10,2 26,6 19,8 17,3 18 10 34 18 NNO 1017,9 20 52 0,0
15.07.2019 14:00:00 22,6 10,1 26,0 19,7 17,4 19 10 36 19 N 1017,9 19 54 0,0
15.07.2019 13:00:00 21,7 9,9 22,9 19,6 17,4 20 11 34 18 NNO 1018,2 20 51 0,0
15.07.2019 12:00:00 19,9 10,0 21,3 19,6 17,4 18 10 35 19 N 1018,7 20 26 0,0
15.07.2019 11:00:00 19,3 9,8 20,5 19,6 17,4 16 9 32 17 NNO 1018,6 20 38 0,0
15.07.2019 10:00:00 18,8 10,9 21,8 19,7 17,3 14 8 27 14 NNO 1018,9 20 57 0,0
15.07.2019 09:00:00 17,2 12,1 18,3 19,8 17,3 13 7 21 11 N 1019,0 20 60 0,0
15.07.2019 08:00:00 15,6 12,0 14,4 20,0 17,3 13 7 24 13 NNO 1018,6 20 60 0,0
15.07.2019 07:00:00 13,2 11,6 10,0 20,2 17,4 11 6 16 8 N 1018,7 20 35 0,0
15.07.2019 06:00:00 10,7 9,6 9,4 20,4 17,4 16 8 17 9 NW 1018,6 20 0 0,0
15.07.2019 05:00:00 12,6 10,8 10,9 20,5 17,4 13 7 16 9 NW 1018,5 20 0 0,0
15.07.2019 04:00:00 11,7 9,9 9,8 20,7 17,4 12 7 14 8 NW 1018,7 20 0 0,0
15.07.2019 03:00:00 10,6 8,5 9,7 20,9 17,4 12 6 16 8 NW 1019,1 20 0 0,0
15.07.2019 02:00:00 14,5 9,9 13,1 21,0 17,4 10 5 16 8 N 1018,9 20 0 0,0
15.07.2019 01:00:00 15,9 10,0 14,3 21,1 17,3 6 3 16 9 N 1018,8 20 0 0,0
15.07.2019 00:00:00 16,6 9,8 15,2 21,2 17,3 11 6 17 9 N 1018,7 20 0 0,0
14.07.2019 23:00:00 17,3 9,5 15,9 21,4 17,4 12 7 20 11 N 1018,7 20 0 0,0
14.07.2019 22:00:00 18,8 9,8 17,7 21,3 17,3 12 7 27 14 NNO 1018,1 20 14 0,0
14.07.2019 21:00:00 20,5 10,0 19,9 21,3 17,4 14 8 36 19 NNO 1017,6 20 60 0,0
14.07.2019 20:00:00 21,5 10,0 21,7 21,2 17,3 21 11 40 21 N 1017,4 20 57 0,0
14.07.2019 19:00:00 21,8 10,6 22,8 21,0 17,4 22 12 45 24 N 1017,4 20 60 0,0
14.07.2019 18:00:00 22,1 10,9 23,7 20,8 17,3 23 12 43 23 N 1017,3 20 60 0,0
14.07.2019 17:00:00 22,7 10,8 24,9 20,6 17,3 24 13 44 24 N 1017,4 20 55 0,0
14.07.2019 16:00:00 22,2 11,3 23,8 20,4 17,3 25 13 36 19 N 1017,6 20 42 0,0
14.07.2019 15:00:00 22,0 10,8 25,1 20,3 17,3 21 11 50 27 N 1017,8 20 36 0,0
14.07.2019 14:00:00 21,8 11,5 23,2 20,2 17,3 19 10 41 22 N 1018,0 20 25 0,0
14.07.2019 13:00:00 20,6 11,8 21,7 20,1 17,3 24 13 40 22 N 1018,1 20 22 0,0
14.07.2019 12:00:00 20,1 12,3 22,1 20,2 17,3 21 11 36 19 N 1018,3 20 31 0,0
14.07.2019 11:00:00 19,8 13,5 19,6 20,2 17,3 16 8 26 14 NNO 1018,4 20 23 0,0
14.07.2019 10:00:00 17,8 12,9 18,2 20,4 17,3 14 8 24 13 NNO 1018,7 20 14 0,0
14.07.2019 09:00:00 15,7 12,8 15,3 20,5 17,3 10 5 18 10 NNW 1018,8 20 0 0,0
14.07.2019 08:00:00 14,0 12,2 12,7 20,7 17,3 12 6 19 11 NW 1018,5 20 4 0,0
14.07.2019 07:00:00 12,5 11,4 11,4 20,8 17,3 16 9 19 11 WNW 1018,3 20 0 0,0
14.07.2019 06:00:00 12,3 10,9 11,6 21,0 17,3 15 8 17 9 WNW 1018,3 20 0 0,0
14.07.2019 05:00:00 13,8 11,5 13,5 21,2 17,3 13 7 16 9 NW 1018,5 20 0 0,0
14.07.2019 04:00:00 14,2 11,7 11,0 21,4 17,3 9 5 13 7 WNW 1019,0 20 0 0,0
14.07.2019 03:00:00 12,5 10,4 11,2 21,5 17,3 13 7 18 10 WNW 1019,5 20 0 0,0
14.07.2019 02:00:00 13,3 10,7 11,7 21,7 17,3 11 6 14 7 NW 1019,6 20 0 0,0
14.07.2019 01:00:00 14,0 10,2 12,1 21,8 17,3 9 5 21 12 NW 1019,7 20 0 0,0
14.07.2019 00:00:00 18,0 12,0 17,1 21,9 17,3 14 8 24 13 N 1019,4 20 0 0,0
13.07.2019 23:00:00 19,1 12,4 15,6 22,0 17,3 11 6 16 9 N 1019,6 20 0 0,0
13.07.2019 22:00:00 20,7 12,1 19,2 22,0 17,3 8 5 19 10 N 1019,0 20 15 0,0
13.07.2019 21:00:00 22,7 12,0 22,0 21,9 17,3 11 6 26 14 N 1018,6 20 56 0,0
13.07.2019 20:00:00 23,6 11,6 23,4 21,7 17,3 15 8 26 14 N 1018,3 20 36 0,0
13.07.2019 19:00:00 24,1 11,4 24,9 21,5 17,3 13 7 33 18 N 1018,3 20 39 0,0
13.07.2019 18:00:00 25,0 11,2 26,4 21,3 17,3 16 9 34 19 N 1018,5 20 38 0,0
13.07.2019 17:00:00 24,6 10,8 26,4 21,0 17,3 17 9 31 17 N 1018,6 20 42 0,0
13.07.2019 16:00:00 25,1 11,3 28,1 20,8 17,3 18 10 36 19 N 1018,7 20 53 0,0
13.07.2019 15:00:00 24,6 11,9 26,1 20,6 17,3 14 8 28 15 N 1019,0 20 32 0,0
13.07.2019 14:00:00 23,3 12,3 27,0 20,5 17,3 10 5 26 14 NNO 1019,4 20 38 0,0
13.07.2019 13:00:00 22,0 12,8 24,7 20,4 17,3 10 6 21 12 NNW 1019,8 20 21 0,0
13.07.2019 12:00:00 21,0 13,4 24,1 20,3 17,3 6 3 19 11 NNO 1020,0 20 18 0,0
13.07.2019 11:00:00 20,6 14,0 22,8 20,4 17,3 13 7 22 12 NNO 1019,9 20 27 0,0
13.07.2019 10:00:00 19,9 14,0 21,3 20,5 17,3 7 4 18 10 N 1019,7 20 55 0,0
13.07.2019 09:00:00 17,8 12,9 17,0 20,6 17,3 8 5 15 8 NNW 1019,6 20 42 0,0
13.07.2019 08:00:00 15,5 12,4 15,5 20,8 17,3 6 3 10 6 NNW 1019,2 20 43 0,0
13.07.2019 07:00:00 13,6 11,1 11,9 21,0 17,3 9 5 13 7 NNW 1018,7 20 37 0,0
13.07.2019 06:00:00 13,1 10,6 9,8 21,2 17,3 8 4 11 6 NNW 1018,6 20 0 0,0
13.07.2019 05:00:00 14,2 11,0 11,0 21,4 17,3 7 4 11 6 NNW 1018,2 20 0 0,0
13.07.2019 04:00:00 13,6 10,6 10,9 21,6 17,3 10 5 14 8 WNW 1018,2 20 0 0,0
13.07.2019 03:00:00 13,5 10,5 10,6 21,7 17,3 12 7 16 8 W 1018,0 20 0 0,0
13.07.2019 02:00:00 13,6 10,4 11,4 21,9 17,3 10 5 14 8 WNW 1018,1 20 0 0,0
13.07.2019 01:00:00 15,2 11,4 13,3 22,0 17,3 14 7 16 9 WNW 1018,0 20 0 0,0
13.07.2019 00:00:00 17,4 12,5 14,9 22,1 17,3 6 3 9 5 NW 1017,5 20 0 0,0
12.07.2019 23:00:00 18,8 12,1 16,0 22,1 17,2 4 2 21 12 WNW 1016,6 20 0 0,0
12.07.2019 22:00:00 22,3 13,4 21,3 22,1 17,3 13 7 29 16 NNW 1015,7 20 3 0,0
12.07.2019 21:00:00 24,1 13,0 23,8 22,0 17,3 22 12 40 22 NNW 1014,8 20 15 0,0
12.07.2019 20:00:00 25,1 12,3 25,2 21,9 17,2 24 13 38 21 WNW 1014,1 20 38 0,0
12.07.2019 19:00:00 26,7 12,0 27,7 21,7 17,3 27 15 44 24 W 1013,5 20 53 0,0
12.07.2019 18:00:00 26,8 12,1 27,7 21,5 17,2 26 14 41 22 W 1013,4 20 20 0,0
12.07.2019 17:00:00 26,8 12,4 27,5 21,3 17,3 23 13 40 22 WNW 1013,7 20 21 0,0
12.07.2019 16:00:00 26,8 12,1 30,5 21,0 17,2 24 13 44 24 W 1014,0 20 53 0,0
12.07.2019 15:00:00 26,9 12,5 28,6 20,8 17,2 24 13 45 25 WNW 1014,3 20 37 0,0
12.07.2019 14:00:00 26,1 12,5 28,5 20,7 17,3 24 13 45 24 WNW 1014,5 20 18 0,0
12.07.2019 13:00:00 24,5 12,8 28,0 20,6 17,2 17 9 35 19 W 1014,6 20 34 0,0
12.07.2019 12:00:00 23,5 12,2 28,6 20,6 17,2 18 10 47 26 W 1014,8 20 36 0,0
12.07.2019 11:00:00 23,1 12,4 26,5 20,6 17,2 23 12 34 18 WNW 1014,8 20 57 0,0
12.07.2019 10:00:00 21,4 12,5 22,0 20,7 17,2 19 11 32 17 W 1014,9 20 28 0,0
12.07.2019 09:00:00 19,4 11,9 20,1 20,8 17,3 21 11 33 18 WNW 1014,8 20 27 0,0
12.07.2019 08:00:00 18,5 11,8 17,7 21,0 17,2 16 9 26 14 W 1014,4 20 50 0,0
12.07.2019 07:00:00 17,0 11,5 15,1 21,1 17,2 16 9 24 13 W 1014,1 20 7 0,0
12.07.2019 06:00:00 16,6 11,5 15,0 21,2 17,3 16 9 20 11 W 1013,4 20 0 0,0
12.07.2019 05:00:00 18,2 12,4 17,2 21,4 17,2 16 8 27 14 WNW 1013,1 20 0 0,0
12.07.2019 04:00:00 18,7 13,8 17,5 21,5 17,3 20 11 28 15 WNW 1012,8 20 0 0,0
12.07.2019 03:00:00 19,7 13,4 18,3 21,6 17,2 12 6 21 11 WNW 1012,2 20 0 0,0
12.07.2019 02:00:00 21,4 13,3 18,8 21,7 17,2 4 2 12 6 WNW 1012,3 20 0 0,0
12.07.2019 01:00:00 20,7 13,9 17,7 21,8 17,3 6 3 13 7 OZO 1012,1 20 0 0,0
12.07.2019 00:00:00 20,5 13,9 17,9 21,8 17,2 8 4 12 6 ZZO 1012,5 20 0 0,0
11.07.2019 23:00:00 21,1 14,7 19,4 21,8 17,2 6 4 10 5 ZZO 1012,8 20 0 0,0
11.07.2019 22:00:00 21,4 14,3 19,5 21,8 17,2 5 3 9 5 Z 1012,7 20 0 0,0
11.07.2019 21:00:00 24,6 15,0 23,2 21,7 17,2 6 3 9 5 ZW 1012,2 20 6 0,0
11.07.2019 20:00:00 26,6 14,4 26,8 21,6 17,2 7 4 9 5 ZW 1012,3 20 0 0,0
11.07.2019 19:00:00 26,4 12,5 22,0 21,3 17,2 6 3 30 16 WZW 1012,4 20 0 0,0
11.07.2019 18:00:00 27,5 12,3 28,4 21,0 17,2 7 4 19 11 ZZW 1012,3 20 22 0,0
11.07.2019 17:00:00 28,8 12,7 29,3 20,7 17,2 9 5 27 14 Z 1012,6 20 39 0,0
11.07.2019 16:00:00 27,0 12,2 29,9 20,5 17,3 11 6 31 17 ZW 1013,1 18 45 0,0
11.07.2019 15:00:00 27,3 11,3 32,1 20,3 17,2 8 4 23 13 Z 1013,5 20 55 0,0
11.07.2019 14:00:00 25,7 11,8 29,4 20,2 17,2 8 4 16 8 ZO 1014,0 20 16 0,0
11.07.2019 13:00:00 23,4 12,4 26,5 20,2 17,2 5 3 21 11 NNW 1014,6 20 0 0,0
11.07.2019 12:00:00 22,7 11,7 22,6 20,2 17,2 4 2 19 11 ZZW 1014,9 20 0 0,0
11.07.2019 11:00:00 20,4 11,9 19,1 20,3 17,2 12 7 21 11 ZO 1014,3 20 0 0,0
11.07.2019 10:00:00 18,6 14,5 18,0 20,4 17,2 5 3 8 4 NO 1015,3 19 0 0,0
11.07.2019 09:00:00 17,5 13,2 16,9 20,5 17,2 4 2 9 5 NO 1015,1 20 0 0,0
11.07.2019 08:00:00 16,8 12,1 15,1 20,6 17,2 3 1 6 3 ZZW 1014,9 18 0 0,0
11.07.2019 07:00:00 15,2 11,0 13,9 20,8 17,2 0 0 3 2 N 1015,0 20 0 0,0
11.07.2019 06:00:00 15,2 10,8 13,7 20,9 17,2 0 0 6 3 N 1014,9 20 0 0,0
11.07.2019 05:00:00 15,9 10,6 13,4 21,1 17,2 6 3 11 6 OZO 1014,9 20 0 0,0
11.07.2019 04:00:00 14,3 10,3 12,3 21,3 17,2 9 5 13 7 Z 1015,3 20 0 0,0
11.07.2019 03:00:00 13,6 9,8 11,1 21,5 17,2 4 2 5 3 ZO 1015,7 20 0 0,0
11.07.2019 02:00:00 13,8 9,6 10,9 21,6 17,2 0 0 3 2 N 1016,3 20 0 0,0
11.07.2019 01:00:00 15,0 9,4 11,9 21,8 17,2 0 0 5 3 N 1016,4 20 0 0,0
11.07.2019 00:00:00 14,2 9,4 12,4 21,8 17,2 2 1 4 2 ZZW 1016,8 20 0 0,0

tt = temperatuur
td = dauwpunt
tt 5cm = temperatuur 5cm
tt -20cm = temperatuur -20cm
tt -100cm = temperatuur -100cm
ff = windsnelheid
fx = windstoten
dd = windrichting
ppp = luchtdruk
vv = zicht
sd = Zonneschijnduur
rr = neerslag

Weerstations in de omgeving